Tracking 30746 objects as of 19-Jun-2025
HD Live streaming from Space Station
objects crossing your sky now

COSMOS 400

Track COSMOS 400 now!
10-day predictions
COSMOS 400 is classified as:


NORAD ID: 5050
Int'l Code: 1971-020A
Perigee: 987.7 km
Apogee: 1,010.0 km
Inclination: 65.8 °
Period: 104.9 minutes
Semi major axis: 7369 km
RCS: 1.4626 m2 (large)
Launch date: March 18, 1971
Source: Commonwealth of Independent States (former USSR) (CIS)
Launch site: PLESETSK MISSILE AND SPACE COMPLEX (PKMTR)
Your satellite tracking list
Your tracking list is empty




NASA's NSSDC Master Catalog

Two Line Element Set (TLE):
1 05050U 71020A   25169.80468816 -.00000072  00000-0  85389-5 0  9992
2 05050  65.8257   6.3351 0015118 288.6973  82.8623 13.72194798718097
Source of the keplerian elements: AFSPC